Time,TemperatureF,DewpointF,PressureIn,WindDirection,WindDirectionDegrees,WindSpeedMPH,WindSpeedGustMPH,Humidity,HourlyPrecipIn,Conditions,Clouds,dailyrainin,SoftwareType,DateUTC
2013-08-24 00:00:00,76.3,70.0,29.97,ESE,112,3.0,3.0,81,0.00,,,0.00,Wunderground v.1.15,2013-08-24 05:00:00,
2013-08-24 00:06:00,76.2,69.9,29.97,ESE,104,2.0,7.0,81,0.00,,,0.00,Wunderground v.1.15,2013-08-24 05:06:00,
2013-08-24 00:12:00,76.0,69.7,29.98,SSE,167,3.0,7.0,81,0.00,,,0.00,Wunderground v.1.15,2013-08-24 05:12:00,
2013-08-24 00:18:00,75.8,69.6,29.98,ESE,119,2.0,7.0,81,0.00,,,0.00,Wunderground v.1.15,2013-08-24 05:18:00,
2013-08-24 00:24:00,75.7,69.8,29.98,SE,128,2.0,7.0,82,0.00,,,0.00,Wunderground v.1.15,2013-08-24 05:24:00,
2013-08-24 00:30:00,75.6,69.7,29.98,ENE,75,3.0,3.0,82,0.00,,,0.00,Wunderground v.1.15,2013-08-24 05:30:00,
2013-08-24 00:35:00,75.5,69.6,29.98,SE,130,2.0,7.0,82,0.00,,,0.00,Wunderground v.1.15,2013-08-24 05:35:00,
2013-08-24 00:41:00,75.3,69.4,29.98,ESE,122,2.0,7.0,82,0.00,,,0.00,Wunderground v.1.15,2013-08-24 05:41:00,
2013-08-24 00:46:00,75.2,69.3,29.98,ESE,115,2.0,7.0,82,0.00,,,0.00,Wunderground v.1.15,2013-08-24 05:46:00,
2013-08-24 00:51:00,75.1,69.6,29.98,East,97,2.0,7.0,83,0.00,,,0.00,Wunderground v.1.15,2013-08-24 05:51:00,
2013-08-24 00:56:00,75.0,69.5,29.98,SE,133,2.0,7.0,83,0.00,,,0.00,Wunderground v.1.15,2013-08-24 05:56:00,
2013-08-24 01:02:00,74.9,69.4,29.98,ESE,103,2.0,7.0,83,0.00,,,0.00,Wunderground v.1.15,2013-08-24 06:02:00,
2013-08-24 01:08:00,74.8,69.3,29.98,ESE,109,2.0,7.0,83,0.00,,,0.00,Wunderground v.1.15,2013-08-24 06:08:00,
2013-08-24 01:14:00,74.7,69.2,29.98,ESE,123,2.0,7.0,83,0.00,,,0.00,Wunderground v.1.15,2013-08-24 06:14:00,
2013-08-24 01:20:00,74.6,69.4,29.98,ESE,121,2.0,7.0,84,0.00,,,0.00,Wunderground v.1.15,2013-08-24 06:20:00,
2013-08-24 01:26:00,74.5,69.3,29.98,SSE,148,2.0,7.0,84,0.00,,,0.00,Wunderground v.1.15,2013-08-24 06:26:00,
2013-08-24 01:32:00,74.4,69.2,29.99,ESE,119,2.0,7.0,84,0.00,,,0.00,Wunderground v.1.15,2013-08-24 06:32:00,
2013-08-24 01:37:00,74.3,69.1,29.98,ESE,120,2.0,7.0,84,0.00,,,0.00,Wunderground v.1.15,2013-08-24 06:37:00,
2013-08-24 01:43:00,74.2,69.1,29.99,SE,124,2.0,7.0,84,0.00,,,0.00,Wunderground v.1.15,2013-08-24 06:43:00,
2013-08-24 01:48:00,74.1,69.3,29.99,ESE,102,2.0,7.0,85,0.00,,,0.00,Wunderground v.1.15,2013-08-24 06:48:00,
2013-08-24 01:53:00,74.0,69.2,29.99,ESE,106,2.0,7.0,85,0.00,,,0.00,Wunderground v.1.15,2013-08-24 06:53:00,
2013-08-24 01:59:00,73.9,69.1,29.99,ESE,121,1.0,7.0,85,0.00,,,0.00,Wunderground v.1.15,2013-08-24 06:59:00,
2013-08-24 02:05:00,73.9,69.1,29.99,SE,129,2.0,7.0,85,0.00,,,0.00,Wunderground v.1.15,2013-08-24 07:05:00,
2013-08-24 02:11:00,73.8,69.0,29.99,SE,129,2.0,7.0,85,0.00,,,0.00,Wunderground v.1.15,2013-08-24 07:11:00,
2013-08-24 02:16:00,73.7,68.9,29.99,ESE,121,2.0,7.0,85,0.00,,,0.00,Wunderground v.1.15,2013-08-24 07:16:00,
2013-08-24 02:22:00,73.6,68.8,29.99,ESE,119,2.0,7.0,85,0.00,,,0.00,Wunderground v.1.15,2013-08-24 07:22:00,
2013-08-24 02:28:00,73.5,69.1,29.99,ESE,120,2.0,7.0,86,0.00,,,0.00,Wunderground v.1.15,2013-08-24 07:28:00,
2013-08-24 02:34:00,73.5,69.1,29.99,SE,136,2.0,7.0,86,0.00,,,0.00,Wunderground v.1.15,2013-08-24 07:34:00,
2013-08-24 02:40:00,73.4,69.0,29.99,SE,126,2.0,7.0,86,0.00,,,0.00,Wunderground v.1.15,2013-08-24 07:40:00,
2013-08-24 02:45:00,73.3,68.9,29.99,ESE,119,2.0,7.0,86,0.00,,,0.00,Wunderground v.1.15,2013-08-24 07:45:00,
2013-08-24 02:51:00,73.3,68.9,29.99,ESE,119,2.0,7.0,86,0.00,,,0.00,Wunderground v.1.15,2013-08-24 07:51:00,
2013-08-24 02:57:00,73.3,68.9,29.99,ESE,118,2.0,7.0,86,0.00,,,0.00,Wunderground v.1.15,2013-08-24 07:57:00,
2013-08-24 03:02:00,73.3,68.9,30.00,ESE,118,2.0,7.0,86,0.00,,,0.00,Wunderground v.1.15,2013-08-24 08:02:00,
2013-08-24 03:08:00,73.3,68.9,29.99,ESE,115,1.0,7.0,86,0.00,,,0.00,Wunderground v.1.15,2013-08-24 08:08:00,
2013-08-24 03:13:00,73.2,68.8,29.99,SE,142,2.0,7.0,86,0.00,,,0.00,Wunderground v.1.15,2013-08-24 08:13:00,
2013-08-24 03:19:00,73.2,69.1,29.99,ESE,121,2.0,7.0,87,0.00,,,0.00,Wunderground v.1.15,2013-08-24 08:19:00,
2013-08-24 03:25:00,73.2,69.1,29.99,ESE,116,2.0,7.0,87,0.00,,,0.00,Wunderground v.1.15,2013-08-24 08:25:00,
2013-08-24 03:31:00,73.1,69.0,29.99,ESE,117,2.0,7.0,87,0.00,,,0.00,Wunderground v.1.15,2013-08-24 08:31:00,
2013-08-24 03:36:00,73.1,69.0,29.99,ESE,107,2.0,7.0,87,0.00,,,0.00,Wunderground v.1.15,2013-08-24 08:36:00,
2013-08-24 03:42:00,73.1,69.0,29.99,SE,140,2.0,7.0,87,0.00,,,0.00,Wunderground v.1.15,2013-08-24 08:42:00,
2013-08-24 03:48:00,73.0,68.9,30.00,SSE,149,2.0,7.0,87,0.00,,,0.00,Wunderground v.1.15,2013-08-24 08:48:00,
2013-08-24 03:54:00,73.0,68.9,30.00,SE,134,2.0,7.0,87,0.00,,,0.00,Wunderground v.1.15,2013-08-24 08:54:00,
2013-08-24 04:00:00,72.9,68.8,29.99,ESE,114,2.0,7.0,87,0.00,,,0.00,Wunderground v.1.15,2013-08-24 09:00:00,
2013-08-24 04:05:00,72.8,68.7,30.00,ESE,113,2.0,7.0,87,0.00,,,0.00,Wunderground v.1.15,2013-08-24 09:05:00,
2013-08-24 04:11:00,72.7,68.6,30.00,SE,134,1.0,7.0,87,0.00,,,0.00,Wunderground v.1.15,2013-08-24 09:11:00,
2013-08-24 04:17:00,72.6,68.8,30.00,SE,125,1.0,7.0,88,0.00,,,0.00,Wunderground v.1.15,2013-08-24 09:17:00,
2013-08-24 04:23:00,72.5,68.7,30.00,SE,130,1.0,7.0,88,0.00,,,0.00,Wunderground v.1.15,2013-08-24 09:23:00,
2013-08-24 04:29:00,72.4,68.6,30.00,SE,132,1.0,7.0,88,0.00,,,0.00,Wunderground v.1.15,2013-08-24 09:29:00,
2013-08-24 04:35:00,72.3,68.5,30.00,SE,130,1.0,7.0,88,0.00,,,0.00,Wunderground v.1.15,2013-08-24 09:35:00,
2013-08-24 04:41:00,72.2,68.4,30.01,ESE,120,2.0,7.0,88,0.00,,,0.00,Wunderground v.1.15,2013-08-24 09:41:00,
2013-08-24 04:47:00,72.2,68.4,30.01,ESE,119,1.0,7.0,88,0.00,,,0.00,Wunderground v.1.15,2013-08-24 09:47:00,
2013-08-24 04:53:00,72.1,68.7,30.01,ESE,123,1.0,7.0,89,0.00,,,0.00,Wunderground v.1.15,2013-08-24 09:53:00,
2013-08-24 04:59:00,72.0,68.6,30.01,ESE,123,1.0,7.0,89,0.00,,,0.00,Wunderground v.1.15,2013-08-24 09:59:00,
2013-08-24 05:04:00,72.0,68.6,30.01,SE,129,1.0,7.0,89,0.00,,,0.00,Wunderground v.1.15,2013-08-24 10:04:00,
2013-08-24 05:10:00,71.9,68.5,30.01,SE,125,2.0,7.0,89,0.00,,,0.00,Wunderground v.1.15,2013-08-24 10:10:00,
2013-08-24 05:15:00,71.9,68.5,30.01,SE,136,2.0,7.0,89,0.00,,,0.00,Wunderground v.1.15,2013-08-24 10:15:00,
2013-08-24 05:21:00,71.8,68.4,30.01,SE,134,2.0,7.0,89,0.00,,,0.00,Wunderground v.1.15,2013-08-24 10:21:00,
2013-08-24 05:27:00,71.7,68.3,30.01,SE,142,1.0,7.0,89,0.00,,,0.00,Wunderground v.1.15,2013-08-24 10:27:00,
2013-08-24 05:33:00,71.7,68.3,30.01,SE,142,1.0,7.0,89,0.00,,,0.00,Wunderground v.1.15,2013-08-24 10:33:00,
2013-08-24 05:38:00,71.6,68.5,30.01,SE,133,1.0,7.0,90,0.00,,,0.00,Wunderground v.1.15,2013-08-24 10:38:00,
2013-08-24 05:44:00,71.5,68.4,30.01,SE,132,1.0,7.0,90,0.00,,,0.00,Wunderground v.1.15,2013-08-24 10:44:00,
2013-08-24 05:50:00,71.4,68.3,30.02,SE,132,1.0,7.0,90,0.00,,,0.00,Wunderground v.1.15,2013-08-24 10:50:00,
2013-08-24 05:55:00,71.4,68.3,30.02,SE,128,1.0,7.0,90,0.00,,,0.00,Wunderground v.1.15,2013-08-24 10:55:00,
2013-08-24 06:01:00,71.3,68.2,30.02,SE,128,1.0,7.0,90,0.00,,,0.00,Wunderground v.1.15,2013-08-24 11:01:00,
2013-08-24 06:07:00,71.3,68.2,30.03,SSE,147,1.0,7.0,90,0.00,,,0.00,Wunderground v.1.15,2013-08-24 11:07:00,
2013-08-24 06:12:00,71.3,68.2,30.03,SE,146,0.0,7.0,90,0.00,,,0.00,Wunderground v.1.15,2013-08-24 11:12:00,
2013-08-24 06:18:00,71.2,68.4,30.03,SE,146,0.0,7.0,91,0.00,,,0.00,Wunderground v.1.15,2013-08-24 11:18:00,
2013-08-24 06:23:00,71.2,68.1,30.03,SSE,147,0.0,7.0,90,0.00,,,0.00,Wunderground v.1.15,2013-08-24 11:23:00,
2013-08-24 06:29:00,71.1,68.3,30.03,SSE,147,1.0,7.0,91,0.00,,,0.00,Wunderground v.1.15,2013-08-24 11:29:00,
2013-08-24 06:35:00,71.0,68.2,30.03,SE,146,0.0,7.0,91,0.00,,,0.00,Wunderground v.1.15,2013-08-24 11:35:00,
2013-08-24 06:41:00,71.0,68.2,30.04,SE,146,1.0,7.0,91,0.00,,,0.00,Wunderground v.1.15,2013-08-24 11:41:00,
2013-08-24 06:47:00,71.1,68.3,30.04,SE,146,1.0,7.0,91,0.00,,,0.00,Wunderground v.1.15,2013-08-24 11:47:00,
2013-08-24 06:53:00,71.1,68.3,30.04,SE,146,1.0,7.0,91,0.00,,,0.00,Wunderground v.1.15,2013-08-24 11:53:00,
2013-08-24 06:59:00,71.2,68.4,30.04,SE,146,0.0,7.0,91,0.00,,,0.00,Wunderground v.1.15,2013-08-24 11:59:00,
2013-08-24 07:04:00,71.3,68.5,30.04,SE,146,0.0,7.0,91,0.00,,,0.00,Wunderground v.1.15,2013-08-24 12:04:00,
2013-08-24 07:10:00,71.3,68.5,30.04,SE,146,0.0,7.0,91,0.00,,,0.00,Wunderground v.1.15,2013-08-24 12:10:00,
2013-08-24 07:16:00,71.4,68.6,30.04,SE,146,1.0,7.0,91,0.00,,,0.00,Wunderground v.1.15,2013-08-24 12:16:00,
2013-08-24 07:22:00,71.6,68.8,30.05,SE,146,1.0,7.0,91,0.00,,,0.00,Wunderground v.1.15,2013-08-24 12:22:00,
2013-08-24 07:28:00,71.7,68.9,30.04,SE,144,1.0,7.0,91,0.00,,,0.00,Wunderground v.1.15,2013-08-24 12:28:00,
2013-08-24 07:33:00,71.8,68.7,30.04,SE,132,2.0,7.0,90,0.00,,,0.00,Wunderground v.1.15,2013-08-24 12:33:00,
2013-08-24 07:39:00,71.9,68.8,30.05,SSE,160,2.0,7.0,90,0.00,,,0.00,Wunderground v.1.15,2013-08-24 12:39:00,
2013-08-24 07:44:00,72.1,69.0,30.05,ESE,119,2.0,7.0,90,0.00,,,0.00,Wunderground v.1.15,2013-08-24 12:44:00,
2013-08-24 07:50:00,72.2,69.1,30.05,ESE,121,1.0,1.0,90,0.00,,,0.00,Wunderground v.1.15,2013-08-24 12:50:00,
2013-08-24 07:56:00,72.4,69.0,30.05,ESE,116,1.0,7.0,89,0.00,,,0.00,Wunderground v.1.15,2013-08-24 12:56:00,
2013-08-24 08:02:00,72.6,69.2,30.05,ESE,116,1.0,7.0,89,0.00,,,0.00,Wunderground v.1.15,2013-08-24 13:02:00,
2013-08-24 08:07:00,72.8,69.7,30.05,ESE,117,1.0,7.0,90,0.00,,,0.00,Wunderground v.1.15,2013-08-24 13:07:00,
2013-08-24 08:13:00,73.0,69.6,30.05,ESE,123,1.0,7.0,89,0.00,,,0.00,Wunderground v.1.15,2013-08-24 13:13:00,
2013-08-24 08:19:00,73.3,69.9,30.06,ESE,121,1.0,7.0,89,0.00,,,0.00,Wunderground v.1.15,2013-08-24 13:19:00,
2013-08-24 08:24:00,73.5,69.7,30.05,SE,128,2.0,7.0,88,0.00,,,0.00,Wunderground v.1.15,2013-08-24 13:24:00,
2013-08-24 08:30:00,73.7,69.9,30.05,ESE,102,2.0,7.0,88,0.00,,,0.00,Wunderground v.1.15,2013-08-24 13:30:00,
2013-08-24 08:36:00,73.8,70.0,30.06,SE,133,2.0,7.0,88,0.00,,,0.00,Wunderground v.1.15,2013-08-24 13:36:00,
2013-08-24 08:42:00,73.8,69.7,30.06,ESE,121,2.0,7.0,87,0.00,,,0.00,Wunderground v.1.15,2013-08-24 13:42:00,
2013-08-24 08:48:00,74.0,70.2,30.06,ESE,121,2.0,7.0,88,0.00,,,0.00,Wunderground v.1.15,2013-08-24 13:48:00,
2013-08-24 08:54:00,74.2,70.1,30.06,ESE,120,2.0,7.0,87,0.00,,,0.00,Wunderground v.1.15,2013-08-24 13:54:00,
2013-08-24 09:00:00,74.5,70.4,30.06,ESE,119,1.0,7.0,87,0.00,,,0.00,Wunderground v.1.15,2013-08-24 14:00:00,
2013-08-24 09:06:00,74.6,70.5,30.06,ESE,113,1.0,7.0,87,0.00,,,0.00,Wunderground v.1.15,2013-08-24 14:06:00,
2013-08-24 09:12:00,74.7,70.6,30.06,ESE,113,1.0,7.0,87,0.00,,,0.00,Wunderground v.1.15,2013-08-24 14:12:00,
2013-08-24 09:17:00,75.1,71.0,30.05,ESE,116,1.0,7.0,87,0.00,,,0.00,Wunderground v.1.15,2013-08-24 14:17:00,
2013-08-24 09:23:00,75.7,71.2,30.05,ESE,121,2.0,7.0,86,0.00,,,0.00,Wunderground v.1.15,2013-08-24 14:23:00,
2013-08-24 09:29:00,76.4,71.6,30.05,ESE,113,2.0,7.0,85,0.00,,,0.00,Wunderground v.1.15,2013-08-24 14:29:00,
2013-08-24 09:35:00,77.1,71.9,30.05,ENE,71,1.0,7.0,84,0.00,,,0.00,Wunderground v.1.15,2013-08-24 14:35:00,
2013-08-24 09:41:00,77.6,71.7,30.05,East,92,1.0,7.0,82,0.00,,,0.00,Wunderground v.1.15,2013-08-24 14:41:00,
2013-08-24 09:47:00,77.7,71.8,30.05,ESE,115,2.0,7.0,82,0.00,,,0.00,Wunderground v.1.15,2013-08-24 14:47:00,
2013-08-24 09:53:00,78.0,72.1,30.05,ESE,119,2.0,7.0,82,0.00,,,0.00,Wunderground v.1.15,2013-08-24 14:53:00,
2013-08-24 09:59:00,78.4,72.4,30.04,ESE,117,2.0,7.0,82,0.00,,,0.00,Wunderground v.1.15,2013-08-24 14:59:00,
2013-08-24 10:05:00,79.1,72.4,30.05,ESE,109,2.0,7.0,80,0.00,,,0.00,Wunderground v.1.15,2013-08-24 15:05:00,
2013-08-24 10:10:00,79.9,72.8,30.04,ESE,109,2.0,7.0,79,0.00,,,0.00,Wunderground v.1.15,2013-08-24 15:10:00,
2013-08-24 10:16:00,80.5,72.6,30.04,ESE,117,2.0,7.0,77,0.00,,,0.00,Wunderground v.1.15,2013-08-24 15:16:00,
2013-08-24 10:22:00,81.0,73.1,30.04,ESE,122,2.0,7.0,77,0.00,,,0.00,Wunderground v.1.15,2013-08-24 15:22:00,
2013-08-24 10:27:00,81.5,73.6,30.04,SE,132,2.0,7.0,77,0.00,,,0.00,Wunderground v.1.15,2013-08-24 15:27:00,
2013-08-24 10:33:00,82.0,73.7,30.04,ENE,75,2.0,7.0,76,0.00,,,0.00,Wunderground v.1.15,2013-08-24 15:33:00,
2013-08-24 10:39:00,82.3,73.6,30.04,ESE,123,2.0,7.0,75,0.00,,,0.00,Wunderground v.1.15,2013-08-24 15:39:00,
2013-08-24 10:44:00,82.6,73.9,30.04,ESE,111,2.0,7.0,75,0.00,,,0.00,Wunderground v.1.15,2013-08-24 15:44:00,
2013-08-24 10:50:00,83.5,74.3,30.04,ESE,123,2.0,7.0,74,0.00,,,0.00,Wunderground v.1.15,2013-08-24 15:50:00,
2013-08-24 10:56:00,84.3,74.7,30.04,ESE,115,2.0,7.0,73,0.00,,,0.00,Wunderground v.1.15,2013-08-24 15:56:00,
2013-08-24 11:02:00,84.9,74.4,30.04,East,96,2.0,7.0,71,0.00,,,0.00,Wunderground v.1.15,2013-08-24 16:02:00,
2013-08-24 11:08:00,85.0,74.5,30.04,East,101,1.0,7.0,71,0.00,,,0.00,Wunderground v.1.15,2013-08-24 16:08:00,
2013-08-24 11:14:00,84.9,74.4,30.04,ESE,114,2.0,7.0,71,0.00,,,0.00,Wunderground v.1.15,2013-08-24 16:14:00,
2013-08-24 11:20:00,84.7,74.3,30.04,SE,125,1.0,7.0,71,0.00,,,0.00,Wunderground v.1.15,2013-08-24 16:20:00,
2013-08-24 11:26:00,84.4,74.4,30.04,ESE,108,1.0,7.0,72,0.00,,,0.00,Wunderground v.1.15,2013-08-24 16:26:00,
2013-08-24 11:31:00,84.2,74.2,30.04,ESE,114,1.0,7.0,72,0.00,,,0.00,Wunderground v.1.15,2013-08-24 16:31:00,
2013-08-24 11:37:00,83.9,74.3,30.04,ESE,109,1.0,7.0,73,0.00,,,0.00,Wunderground v.1.15,2013-08-24 16:37:00,
2013-08-24 11:43:00,83.8,74.2,30.04,ESE,105,1.0,7.0,73,0.00,,,0.00,Wunderground v.1.15,2013-08-24 16:43:00,
2013-08-24 11:49:00,83.8,74.2,30.04,ESE,105,1.0,7.0,73,0.00,,,0.00,Wunderground v.1.15,2013-08-24 16:49:00,
2013-08-24 11:55:00,84.3,74.7,30.04,ESE,103,0.0,7.0,73,0.00,,,0.00,Wunderground v.1.15,2013-08-24 16:55:00,
2013-08-24 12:01:00,85.0,75.4,30.04,ESE,109,1.0,7.0,73,0.00,,,0.00,Wunderground v.1.15,2013-08-24 17:01:00,
2013-08-24 12:06:00,85.6,74.7,30.04,ESE,107,1.0,7.0,70,0.00,,,0.00,Wunderground v.1.15,2013-08-24 17:06:00,
2013-08-24 12:12:00,85.9,75.0,30.04,ESE,106,1.0,7.0,70,0.00,,,0.00,Wunderground v.1.15,2013-08-24 17:12:00,
2013-08-24 12:18:00,86.1,74.7,30.03,ESE,115,1.0,7.0,69,0.00,,,0.00,Wunderground v.1.15,2013-08-24 17:18:00,
2013-08-24 12:24:00,86.1,75.2,30.03,SE,128,1.0,7.0,70,0.00,,,0.00,Wunderground v.1.15,2013-08-24 17:24:00,
2013-08-24 12:29:00,86.3,74.9,30.03,East,96,1.0,7.0,69,0.00,,,0.00,Wunderground v.1.15,2013-08-24 17:29:00,
2013-08-24 12:35:00,86.3,74.5,30.03,ESE,121,1.0,7.0,68,0.00,,,0.00,Wunderground v.1.15,2013-08-24 17:35:00,
2013-08-24 12:41:00,86.2,74.4,30.03,ESE,114,1.0,7.0,68,0.00,,,0.00,Wunderground v.1.15,2013-08-24 17:41:00,
2013-08-24 12:47:00,86.2,74.8,30.03,ESE,114,1.0,7.0,69,0.00,,,0.00,Wunderground v.1.15,2013-08-24 17:47:00,
2013-08-24 12:53:00,86.4,74.6,30.02,ESE,115,1.0,7.0,68,0.00,,,0.00,Wunderground v.1.15,2013-08-24 17:53:00,
2013-08-24 12:59:00,86.5,74.2,30.02,SE,127,1.0,7.0,67,0.00,,,0.00,Wunderground v.1.15,2013-08-24 17:59:00,
2013-08-24 13:05:00,86.7,74.4,30.02,SE,126,1.0,7.0,67,0.00,,,0.00,Wunderground v.1.15,2013-08-24 18:05:00,
2013-08-24 13:11:00,87.1,74.4,30.02,ESE,116,1.0,7.0,66,0.00,,,0.00,Wunderground v.1.15,2013-08-24 18:11:00,
2013-08-24 13:17:00,87.4,74.6,30.01,ESE,102,1.0,7.0,66,0.00,,,0.00,Wunderground v.1.15,2013-08-24 18:17:00,
2013-08-24 13:23:00,87.7,74.0,30.01,ESE,110,1.0,7.0,64,0.00,,,0.00,Wunderground v.1.15,2013-08-24 18:23:00,
2013-08-24 13:28:00,88.3,75.0,30.01,ESE,112,1.0,7.0,65,0.00,,,0.00,Wunderground v.1.15,2013-08-24 18:28:00,
2013-08-24 13:34:00,88.7,74.5,30.00,East,101,1.0,7.0,63,0.00,,,0.00,Wunderground v.1.15,2013-08-24 18:34:00,
2013-08-24 13:39:00,88.9,74.7,30.00,SE,132,1.0,7.0,63,0.00,,,0.00,Wunderground v.1.15,2013-08-24 18:39:00,
2013-08-24 13:44:00,88.7,73.5,30.00,ESE,117,2.0,7.0,61,0.00,,,0.00,Wunderground v.1.15,2013-08-24 18:44:00,
2013-08-24 13:50:00,88.6,73.9,30.00,ESE,115,2.0,7.0,62,0.00,,,0.00,Wunderground v.1.15,2013-08-24 18:50:00,
2013-08-24 13:55:00,89.0,73.8,30.00,SE,125,3.0,10.0,61,0.00,,,0.00,Wunderground v.1.15,2013-08-24 18:55:00,
2013-08-24 14:00:00,89.0,73.3,29.99,ESE,113,3.0,3.0,60,0.00,,,0.00,Wunderground v.1.15,2013-08-24 19:00:00,
2013-08-24 14:06:00,89.1,73.9,29.99,ESE,102,2.0,7.0,61,0.00,,,0.00,Wunderground v.1.15,2013-08-24 19:06:00,
2013-08-24 14:11:00,89.3,73.6,29.99,ESE,106,2.0,7.0,60,0.00,,,0.00,Wunderground v.1.15,2013-08-24 19:11:00,
2013-08-24 14:16:00,89.3,73.6,29.99,East,95,2.0,7.0,60,0.00,,,0.00,Wunderground v.1.15,2013-08-24 19:16:00,
2013-08-24 14:22:00,89.0,72.8,29.99,East,97,3.0,7.0,59,0.00,,,0.00,Wunderground v.1.15,2013-08-24 19:22:00,
2013-08-24 14:28:00,88.9,73.2,29.99,SE,137,2.0,7.0,60,0.00,,,0.00,Wunderground v.1.15,2013-08-24 19:28:00,
2013-08-24 14:34:00,88.9,73.2,29.98,East,101,2.0,7.0,60,0.00,,,0.00,Wunderground v.1.15,2013-08-24 19:34:00,
2013-08-24 14:40:00,88.9,73.2,29.99,East,86,2.0,2.0,60,0.00,,,0.00,Wunderground v.1.15,2013-08-24 19:40:00,
2013-08-24 14:45:00,88.8,73.1,29.98,ESE,122,1.0,7.0,60,0.00,,,0.00,Wunderground v.1.15,2013-08-24 19:45:00,
2013-08-24 14:51:00,88.6,72.4,29.98,ESE,109,2.0,7.0,59,0.00,,,0.00,Wunderground v.1.15,2013-08-24 19:51:00,
2013-08-24 14:57:00,88.8,72.6,29.98,SE,129,2.0,7.0,59,0.00,,,0.00,Wunderground v.1.15,2013-08-24 19:57:00,
2013-08-24 15:03:00,89.1,72.4,29.98,SE,132,2.0,7.0,58,0.00,,,0.00,Wunderground v.1.15,2013-08-24 20:03:00,
2013-08-24 15:08:00,89.6,72.9,29.97,SE,144,3.0,7.0,58,0.00,,,0.00,Wunderground v.1.15,2013-08-24 20:08:00,
2013-08-24 15:14:00,90.1,72.3,29.97,ESE,120,3.0,7.0,56,0.00,,,0.00,Wunderground v.1.15,2013-08-24 20:14:00,
2013-08-24 15:20:00,90.5,72.1,29.97,ESE,117,3.0,3.0,55,0.00,,,0.00,Wunderground v.1.15,2013-08-24 20:20:00,
2013-08-24 15:26:00,90.6,72.8,29.97,ESE,113,2.0,7.0,56,0.00,,,0.00,Wunderground v.1.15,2013-08-24 20:26:00,
2013-08-24 15:32:00,90.8,72.4,29.97,SE,140,2.0,7.0,55,0.00,,,0.00,Wunderground v.1.15,2013-08-24 20:32:00,
2013-08-24 15:38:00,90.9,73.0,29.97,East,92,3.0,7.0,56,0.00,,,0.00,Wunderground v.1.15,2013-08-24 20:38:00,
2013-08-24 15:44:00,90.9,72.5,29.97,ESE,104,3.0,7.0,55,0.00,,,0.00,Wunderground v.1.15,2013-08-24 20:44:00,
2013-08-24 15:49:00,91.1,72.7,29.96,East,87,2.0,7.0,55,0.00,,,0.00,Wunderground v.1.15,2013-08-24 20:49:00,
2013-08-24 15:55:00,91.3,72.9,29.96,South,184,2.0,7.0,55,0.00,,,0.00,Wunderground v.1.15,2013-08-24 20:55:00,
2013-08-24 16:01:00,91.1,72.7,29.96,SE,145,2.0,7.0,55,0.00,,,0.00,Wunderground v.1.15,2013-08-24 21:01:00,
2013-08-24 16:07:00,90.8,72.4,29.96,ESE,105,2.0,7.0,55,0.00,,,0.00,Wunderground v.1.15,2013-08-24 21:07:00,
2013-08-24 16:13:00,90.6,73.3,29.96,ESE,117,2.0,7.0,57,0.00,,,0.00,Wunderground v.1.15,2013-08-24 21:13:00,
2013-08-24 16:19:00,90.5,72.7,29.96,SE,136,1.0,7.0,56,0.00,,,0.00,Wunderground v.1.15,2013-08-24 21:19:00,
2013-08-24 16:24:00,90.3,72.5,29.96,East,90,2.0,7.0,56,0.00,,,0.00,Wunderground v.1.15,2013-08-24 21:24:00,
2013-08-24 16:30:00,90.1,72.3,29.96,ESE,121,2.0,2.0,56,0.00,,,0.00,Wunderground v.1.15,2013-08-24 21:30:00,
2013-08-24 16:35:00,90.1,72.3,29.96,ESE,103,1.0,7.0,56,0.00,,,0.00,Wunderground v.1.15,2013-08-24 21:35:00,
2013-08-24 16:40:00,90.1,72.3,29.96,SE,140,1.0,1.0,56,0.00,,,0.00,Wunderground v.1.15,2013-08-24 21:40:00,
2013-08-24 16:46:00,90.1,72.3,29.96,SE,132,1.0,7.0,56,0.00,,,0.00,Wunderground v.1.15,2013-08-24 21:46:00,
2013-08-24 16:51:00,90.0,72.2,29.96,East,90,1.0,3.0,56,0.00,,,0.00,Wunderground v.1.15,2013-08-24 21:51:00,
2013-08-24 16:56:00,89.7,71.4,29.96,ENE,57,1.0,7.0,55,0.00,,,0.00,Wunderground v.1.15,2013-08-24 21:56:00,
2013-08-24 17:02:00,89.3,71.5,29.96,ENE,74,1.0,7.0,56,0.00,,,0.00,Wunderground v.1.15,2013-08-24 22:02:00,
2013-08-24 17:07:00,89.0,71.3,29.96,SE,126,1.0,7.0,56,0.00,,,0.00,Wunderground v.1.15,2013-08-24 22:07:00,
2013-08-24 17:12:00,88.8,71.6,29.96,ESE,103,1.0,7.0,57,0.00,,,0.00,Wunderground v.1.15,2013-08-24 22:12:00,
2013-08-24 17:18:00,88.6,71.4,29.96,ESE,109,1.0,7.0,57,0.00,,,0.00,Wunderground v.1.15,2013-08-24 22:18:00,
2013-08-24 17:23:00,88.5,71.3,29.96,ESE,108,1.0,7.0,57,0.00,,,0.00,Wunderground v.1.15,2013-08-24 22:23:00,
2013-08-24 17:28:00,88.4,71.7,29.96,ESE,108,0.0,7.0,58,0.00,,,0.00,Wunderground v.1.15,2013-08-24 22:28:00,
2013-08-24 17:34:00,88.3,71.6,29.96,ESE,108,0.0,7.0,58,0.00,,,0.00,Wunderground v.1.15,2013-08-24 22:34:00,
2013-08-24 17:39:00,88.2,71.0,29.96,East,98,0.0,7.0,57,0.00,,,0.00,Wunderground v.1.15,2013-08-24 22:39:00,
2013-08-24 17:44:00,88.1,72.0,29.96,East,98,1.0,7.0,59,0.00,,,0.00,Wunderground v.1.15,2013-08-24 22:44:00,
2013-08-24 17:50:00,88.1,71.5,29.96,ESE,117,1.0,1.0,58,0.00,,,0.00,Wunderground v.1.15,2013-08-24 22:50:00,
2013-08-24 17:55:00,88.1,72.5,29.96,ESE,117,0.0,7.0,60,0.00,,,0.00,Wunderground v.1.15,2013-08-24 22:55:00,
2013-08-24 18:00:00,88.1,72.0,29.95,ESE,115,1.0,7.0,59,0.00,,,0.00,Wunderground v.1.15,2013-08-24 23:00:00,
2013-08-24 18:06:00,88.2,71.6,29.96,ESE,105,1.0,7.0,58,0.00,,,0.00,Wunderground v.1.15,2013-08-24 23:06:00,
2013-08-24 18:11:00,88.3,71.6,29.95,ESE,103,1.0,7.0,58,0.00,,,0.00,Wunderground v.1.15,2013-08-24 23:11:00,
2013-08-24 18:16:00,88.5,71.8,29.95,East,93,2.0,7.0,58,0.00,,,0.00,Wunderground v.1.15,2013-08-24 23:16:00,
2013-08-24 18:22:00,88.6,71.9,29.96,ESE,122,2.0,7.0,58,0.00,,,0.00,Wunderground v.1.15,2013-08-24 23:22:00,
2013-08-24 18:27:00,88.6,72.4,29.95,East,92,1.0,7.0,59,0.00,,,0.00,Wunderground v.1.15,2013-08-24 23:27:00,
2013-08-24 18:32:00,88.6,72.4,29.96,ESE,114,1.0,7.0,59,0.00,,,0.00,Wunderground v.1.15,2013-08-24 23:32:00,
2013-08-24 18:38:00,88.6,72.4,29.96,ESE,111,1.0,7.0,59,0.00,,,0.00,Wunderground v.1.15,2013-08-24 23:38:00,
2013-08-24 18:43:00,88.5,72.3,29.96,ESE,111,1.0,7.0,59,0.00,,,0.00,Wunderground v.1.15,2013-08-24 23:43:00,
2013-08-24 18:48:00,88.3,72.7,29.95,ESE,106,1.0,7.0,60,0.00,,,0.00,Wunderground v.1.15,2013-08-24 23:48:00,
2013-08-24 18:54:00,88.1,72.5,29.95,ESE,106,1.0,7.0,60,0.00,,,0.00,Wunderground v.1.15,2013-08-24 23:54:00,
2013-08-24 18:59:00,88.0,72.4,29.95,ENE,76,0.0,7.0,60,0.00,,,0.00,Wunderground v.1.15,2013-08-24 23:59:00,
2013-08-24 19:04:00,88.0,72.4,29.95,East,88,1.0,7.0,60,0.00,,,0.00,Wunderground v.1.15,2013-08-25 00:04:00,
2013-08-24 19:10:00,87.9,72.3,29.95,ESE,111,1.0,7.0,60,0.00,,,0.00,Wunderground v.1.15,2013-08-25 00:10:00,
2013-08-24 19:15:00,87.8,72.2,29.96,ESE,110,1.0,7.0,60,0.00,,,0.00,Wunderground v.1.15,2013-08-25 00:15:00,
2013-08-24 19:20:00,87.5,71.9,29.96,ESE,102,1.0,1.0,60,0.00,,,0.00,Wunderground v.1.15,2013-08-25 00:20:00,
2013-08-24 19:26:00,87.3,71.7,29.96,ESE,115,1.0,7.0,60,0.00,,,0.00,Wunderground v.1.15,2013-08-25 00:26:00,
2013-08-24 19:31:00,87.1,72.0,29.96,East,80,1.0,7.0,61,0.00,,,0.00,Wunderground v.1.15,2013-08-25 00:31:00,
2013-08-24 19:36:00,86.9,71.8,29.96,East,94,1.0,7.0,61,0.00,,,0.00,Wunderground v.1.15,2013-08-25 00:36:00,
2013-08-24 19:42:00,86.6,72.0,29.96,East,98,1.0,7.0,62,0.00,,,0.00,Wunderground v.1.15,2013-08-25 00:42:00,
2013-08-24 19:47:00,86.3,71.7,29.96,East,84,1.0,7.0,62,0.00,,,0.00,Wunderground v.1.15,2013-08-25 00:47:00,
2013-08-24 19:52:00,86.1,71.6,29.97,ESE,117,1.0,7.0,62,0.00,,,0.00,Wunderground v.1.15,2013-08-25 00:52:00,
2013-08-24 19:58:00,85.8,71.7,29.97,East,90,1.0,7.0,63,0.00,,,0.00,Wunderground v.1.15,2013-08-25 00:58:00,
2013-08-24 20:04:00,85.6,72.0,29.97,East,91,1.0,7.0,64,0.00,,,0.00,Wunderground v.1.15,2013-08-25 01:04:00,
2013-08-24 20:10:00,85.3,71.7,29.97,East,92,1.0,1.0,64,0.00,,,0.00,Wunderground v.1.15,2013-08-25 01:10:00,
2013-08-24 20:16:00,85.0,71.5,29.97,East,92,1.0,7.0,64,0.00,,,0.00,Wunderground v.1.15,2013-08-25 01:16:00,
2013-08-24 20:21:00,84.7,71.6,29.97,East,92,1.0,7.0,65,0.00,,,0.00,Wunderground v.1.15,2013-08-25 01:21:00,
2013-08-24 20:27:00,84.5,71.4,29.97,East,92,1.0,7.0,65,0.00,,,0.00,Wunderground v.1.15,2013-08-25 01:27:00,
2013-08-24 20:33:00,84.3,71.7,29.97,East,92,1.0,7.0,66,0.00,,,0.00,Wunderground v.1.15,2013-08-25 01:33:00,
2013-08-24 20:39:00,84.0,71.4,29.98,East,92,1.0,7.0,66,0.00,,,0.00,Wunderground v.1.15,2013-08-25 01:39:00,
2013-08-24 20:44:00,83.9,71.3,29.98,East,92,1.0,7.0,66,0.00,,,0.00,Wunderground v.1.15,2013-08-25 01:44:00,
2013-08-24 20:49:00,83.7,71.6,29.98,East,95,1.0,7.0,67,0.00,,,0.00,Wunderground v.1.15,2013-08-25 01:49:00,
2013-08-24 20:55:00,83.5,71.4,29.98,SE,129,1.0,7.0,67,0.00,,,0.00,Wunderground v.1.15,2013-08-25 01:55:00,
2013-08-24 21:01:00,83.3,71.2,29.98,SE,129,1.0,7.0,67,0.00,,,0.00,Wunderground v.1.15,2013-08-25 02:01:00,
2013-08-24 21:07:00,83.1,71.4,29.98,ESE,122,1.0,7.0,68,0.00,,,0.00,Wunderground v.1.15,2013-08-25 02:07:00,
2013-08-24 21:12:00,82.9,71.3,29.99,ESE,121,1.0,7.0,68,0.00,,,0.00,Wunderground v.1.15,2013-08-25 02:12:00,
2013-08-24 21:18:00,82.7,71.1,29.99,ESE,105,1.0,7.0,68,0.00,,,0.00,Wunderground v.1.15,2013-08-25 02:18:00,
2013-08-24 21:23:00,82.6,71.0,29.99,ESE,103,1.0,7.0,68,0.00,,,0.00,Wunderground v.1.15,2013-08-25 02:23:00,
2013-08-24 21:28:00,82.5,70.9,29.99,ESE,104,1.0,7.0,68,0.00,,,0.00,Wunderground v.1.15,2013-08-25 02:28:00,
2013-08-24 21:34:00,82.3,70.7,29.99,SSE,153,2.0,7.0,68,0.00,,,0.00,Wunderground v.1.15,2013-08-25 02:34:00,
2013-08-24 21:39:00,82.2,70.6,29.99,ESE,115,2.0,7.0,68,0.00,,,0.00,Wunderground v.1.15,2013-08-25 02:39:00,
2013-08-24 21:44:00,82.1,70.5,29.99,ESE,105,1.0,7.0,68,0.00,,,0.00,Wunderground v.1.15,2013-08-25 02:44:00,
2013-08-24 21:50:00,82.0,70.4,29.99,SE,133,1.0,1.0,68,0.00,,,0.00,Wunderground v.1.15,2013-08-25 02:50:00,
2013-08-24 21:55:00,81.9,70.3,30.00,SE,125,2.0,7.0,68,0.00,,,0.00,Wunderground v.1.15,2013-08-25 02:55:00,
2013-08-24 22:00:00,81.8,70.2,29.99,SE,125,1.0,1.0,68,0.00,,,0.00,Wunderground v.1.15,2013-08-25 03:00:00,
2013-08-24 22:06:00,81.7,70.1,29.99,SE,128,1.0,7.0,68,0.00,,,0.00,Wunderground v.1.15,2013-08-25 03:06:00,
2013-08-24 22:11:00,81.5,69.9,29.99,ESE,118,1.0,7.0,68,0.00,,,0.00,Wunderground v.1.15,2013-08-25 03:11:00,
2013-08-24 22:16:00,81.4,70.2,29.99,ESE,123,1.0,7.0,69,0.00,,,0.00,Wunderground v.1.15,2013-08-25 03:16:00,
2013-08-24 22:22:00,81.3,70.2,30.00,SSE,148,1.0,7.0,69,0.00,,,0.00,Wunderground v.1.15,2013-08-25 03:22:00,
2013-08-24 22:27:00,81.2,70.1,30.00,ESE,121,1.0,7.0,69,0.00,,,0.00,Wunderground v.1.15,2013-08-25 03:27:00,
2013-08-24 22:32:00,81.1,70.0,30.00,East,97,1.0,7.0,69,0.00,,,0.00,Wunderground v.1.15,2013-08-25 03:32:00,
2013-08-24 22:38:00,81.0,69.9,30.00,ESE,105,1.0,7.0,69,0.00,,,0.00,Wunderground v.1.15,2013-08-25 03:38:00,
2013-08-24 22:43:00,80.9,69.8,30.00,ESE,106,1.0,7.0,69,0.00,,,0.00,Wunderground v.1.15,2013-08-25 03:43:00,
2013-08-24 22:48:00,80.9,70.2,30.00,East,90,1.0,7.0,70,0.00,,,0.00,Wunderground v.1.15,2013-08-25 03:48:00,
2013-08-24 22:54:00,80.7,70.0,30.00,SE,130,0.0,7.0,70,0.00,,,0.00,Wunderground v.1.15,2013-08-25 03:54:00,
2013-08-24 22:59:00,80.6,69.9,30.00,ESE,112,1.0,7.0,70,0.00,,,0.00,Wunderground v.1.15,2013-08-25 03:59:00,
2013-08-24 23:01:00,80.6,69.9,30.00,ESE,117,1.0,7.0,70,0.00,,,0.00,Wunderground v.1.15,2013-08-25 04:01:00,
2013-08-24 23:02:00,80.5,69.8,30.00,ESE,117,1.0,7.0,70,0.00,,,0.00,Wunderground v.1.15,2013-08-25 04:02:00,
2013-08-24 23:03:00,80.5,69.8,30.00,ESE,117,1.0,7.0,70,0.00,,,0.00,Wunderground v.1.15,2013-08-25 04:03:00,
2013-08-24 23:08:00,80.4,69.7,30.00,ESE,117,1.0,7.0,70,0.00,,,0.00,Wunderground v.1.15,2013-08-25 04:08:00,
2013-08-24 23:11:00,80.3,70.0,30.00,SE,142,1.0,7.0,71,0.00,,,0.00,Wunderground v.1.15,2013-08-25 04:11:00,
2013-08-24 23:17:00,80.2,69.9,30.00,SE,130,1.0,7.0,71,0.00,,,0.00,Wunderground v.1.15,2013-08-25 04:17:00,
2013-08-24 23:23:00,80.1,69.8,30.00,ESE,103,1.0,7.0,71,0.00,,,0.00,Wunderground v.1.15,2013-08-25 04:23:00,
2013-08-24 23:29:00,79.9,70.1,30.00,ESE,105,0.0,7.0,72,0.00,,,0.00,Wunderground v.1.15,2013-08-25 04:29:00,
2013-08-24 23:35:00,79.8,70.0,30.00,ESE,105,0.0,7.0,72,0.00,,,0.00,Wunderground v.1.15,2013-08-25 04:35:00,
2013-08-24 23:40:00,79.6,69.8,30.00,ESE,105,0.0,7.0,72,0.00,,,0.00,Wunderground v.1.15,2013-08-25 04:40:00,
2013-08-24 23:46:00,79.5,70.1,30.00,ESE,107,0.0,7.0,73,0.00,,,0.00,Wunderground v.1.15,2013-08-25 04:46:00,
2013-08-24 23:52:00,79.3,69.9,30.00,ESE,108,1.0,7.0,73,0.00,,,0.00,Wunderground v.1.15,2013-08-25 04:52:00,
2013-08-24 23:58:00,79.1,69.7,30.00,ESE,109,1.0,7.0,73,0.00,,,0.00,Wunderground v.1.15,2013-08-25 04:58:00,